When you browse on this site, cookies collect data to enhance your experience and personalize the content and advertising you see.
Visit our Privacy Policy to learn more. By continuing to use the site, you agree to this use of cookies and data.
  • In Schweiz
  • Länderverzeichnis
  • Für 7 Tage
  • Wassertemperatur
  • Satellitenkarten
  • Wetterkarte
  • Widgets
  • user-avatar
    Anmelden

    Stündliche Wetter El Salvador

    Heute, 17 November, Samstag

    Zeit Temperatur Niederschläge Wind Luftdruck Luftfeuchtigkeit
    00:00 +25°C° 0 mm 4 m/S 757 mmHg 92%
    01:00 +25°C° 0.1 mm 4 m/S 757 mmHg 93%
    02:00 +23°C° 0.1 mm 4 m/S 757 mmHg 94%
    03:00 +23°C° 0.1 mm 4 m/S 757 mmHg 94%
    04:00 +25°C° 0.1 mm 4 m/S 757 mmHg 93%
    05:00 +25°C° 0.1 mm 4 m/S 757 mmHg 91%
    06:00 +25°C° 0.1 mm 4 m/S 757 mmHg 90%
    07:00 +27°C° 0.1 mm 4 m/S 757 mmHg 79%
    08:00 +29°C° 0.1 mm 4 m/S 758 mmHg 69%
    09:00 +32°C° 0.1 mm 4 m/S 758 mmHg 58%
    10:00 +33°C° 0 mm 4 m/S 758 mmHg 56%
    11:00 +34°C° 0 mm 4 m/S 758 mmHg 54%
    12:00 +34°C° 0 mm 5 m/S 757 mmHg 51%
    13:00 +34°C° 0 mm 5 m/S 757 mmHg 53%
    14:00 +33°C° 0 mm 5 m/S 757 mmHg 54%
    15:00 +33°C° 0 mm 5 m/S 756 mmHg 55%
    16:00 +30°C° 0 mm 5 m/S 756 mmHg 63%
    17:00 +29°C° 0 mm 5 m/S 756 mmHg 71%
    18:00 +27°C° 0 mm 5 m/S 756 mmHg 80%
    19:00 +26°C° 0.1 mm 5 m/S 757 mmHg 84%
    20:00 +26°C° 0.1 mm 5 m/S 757 mmHg 88%
    21:00 +25°C° 0.1 mm 5 m/S 758 mmHg 92%
    22:00 +25°C° 0.2 mm 5 m/S 758 mmHg 93%
    23:00 +25°C° 0.2 mm 5 m/S 758 mmHg 94%

    Morgen, 18 November, Sonntag

    Zeit Temperatur Niederschläge Wind Luftdruck Luftfeuchtigkeit
    00:00 +25°C° 0.2 mm 5 m/S 757 mmHg 95%
    01:00 +25°C° 0.2 mm 4 m/S 757 mmHg 96%
    02:00 +25°C° 0.2 mm 4 m/S 757 mmHg 96%
    03:00 +23°C° 0.2 mm 4 m/S 756 mmHg 96%
    04:00 +25°C° 0.2 mm 4 m/S 757 mmHg 95%
    05:00 +25°C° 0.2 mm 4 m/S 757 mmHg 94%
    06:00 +25°C° 0.2 mm 4 m/S 757 mmHg 93%
    07:00 +27°C° 0.2 mm 4 m/S 757 mmHg 87%
    08:00 +28°C° 0.2 mm 5 m/S 758 mmHg 81%
    09:00 +29°C° 0.2 mm 5 m/S 758 mmHg 74%
    10:00 +30°C° 0.2 mm 5 m/S 758 mmHg 71%
    11:00 +32°C° 0.2 mm 5 m/S 757 mmHg 67%
    12:00 +33°C° 0.2 mm 5 m/S 757 mmHg 63%
    13:00 +33°C° 0 mm 5 m/S 756 mmHg 62%
    14:00 +33°C° 0 mm 5 m/S 756 mmHg 61%
    15:00 +33°C° 0 mm 5 m/S 755 mmHg 60%
    16:00 +30°C° 0 mm 5 m/S 756 mmHg 66%
    17:00 +28°C° 0 mm 5 m/S 756 mmHg 73%
    18:00 +27°C° 0 mm 5 m/S 756 mmHg 80%
    19:00 +26°C° 0 mm 4 m/S 756 mmHg 83%
    20:00 +25°C° 0 mm 4 m/S 757 mmHg 86%
    21:00 +25°C° 0 mm 4 m/S 757 mmHg 89%
    22:00 +25°C° 0 mm 4 m/S 757 mmHg 90%
    23:00 +23°C° 0 mm 4 m/S 757 mmHg 91%

    übermorgen, 19 November, Montag

    Zeit Temperatur Niederschläge Wind Luftdruck Luftfeuchtigkeit
    00:00 +24°C° 0 mm 3 m/S 757 mmHg 93%
    01:00 +24°C° 0 mm 3 m/S 756 mmHg 93%
    02:00 +24°C° 0 mm 3 m/S 756 mmHg 94%
    03:00 +24°C° 0 mm 2 m/S 756 mmHg 94%
    04:00 +24°C° 0.1 mm 2 m/S 756 mmHg 93%
    05:00 +25°C° 0.1 mm 2 m/S 756 mmHg 91%
    06:00 +25°C° 0.1 mm 2 m/S 757 mmHg 90%
    07:00 +27°C° 0.1 mm 3 m/S 757 mmHg 80%
    08:00 +29°C° 0.1 mm 3 m/S 757 mmHg 71%
    09:00 +31°C° 0.1 mm 3 m/S 757 mmHg 61%
    10:00 +32°C° 0.1 mm 4 m/S 757 mmHg 59%
    11:00 +32°C° 0.1 mm 4 m/S 757 mmHg 58%
    12:00 +33°C° 0.1 mm 4 m/S 756 mmHg 56%
    13:00 +33°C° 0 mm 4 m/S 756 mmHg 56%
    14:00 +33°C° 0 mm 4 m/S 755 mmHg 55%
    15:00 +33°C° 0 mm 4 m/S 754 mmHg 55%
    16:00 +30°C° 0 mm 4 m/S 754 mmHg 62%
    17:00 +29°C° 0 mm 4 m/S 755 mmHg 68%
    18:00 +27°C° 0 mm 4 m/S 755 mmHg 75%
    19:00 +27°C° 0 mm 4 m/S 755 mmHg 79%
    20:00 +26°C° 0 mm 4 m/S 756 mmHg 83%
    21:00 +25°C° 0 mm 4 m/S 757 mmHg 87%
    22:00 +25°C° 0 mm 4 m/S 757 mmHg 89%
    23:00 +25°C° 0 mm 3 m/S 757 mmHg 91%

    20 November, Dienstag

    Zeit Temperatur Niederschläge Wind Luftdruck Luftfeuchtigkeit
    00:00 +24°C° 0 mm 3 m/S 757 mmHg 93%
    01:00 +24°C° 0.1 mm 3 m/S 756 mmHg 94%
    02:00 +24°C° 0.1 mm 3 m/S 756 mmHg 94%
    03:00 +24°C° 0.1 mm 3 m/S 756 mmHg 94%
    04:00 +24°C° 0.1 mm 3 m/S 756 mmHg 93%
    05:00 +25°C° 0.1 mm 3 m/S 756 mmHg 91%
    06:00 +25°C° 0.1 mm 3 m/S 757 mmHg 90%
    07:00 +27°C° 0.1 mm 4 m/S 757 mmHg 82%
    08:00 +29°C° 0.1 mm 4 m/S 758 mmHg 73%
    09:00 +32°C° 0.1 mm 5 m/S 758 mmHg 65%
    10:00 +32°C° 0.1 mm 5 m/S 758 mmHg 61%
    11:00 +33°C° 0.1 mm 5 m/S 757 mmHg 58%
    12:00 +34°C° 0.1 mm 5 m/S 757 mmHg 54%
    13:00 +34°C° 0 mm 5 m/S 756 mmHg 54%
    14:00 +33°C° 0 mm 5 m/S 755 mmHg 55%
    15:00 +33°C° 0 mm 5 m/S 755 mmHg 55%
    16:00 +32°C° 0 mm 5 m/S 755 mmHg 62%
    17:00 +29°C° 0 mm 5 m/S 755 mmHg 69%
    18:00 +27°C° 0 mm 5 m/S 756 mmHg 76%
    19:00 +27°C° 0 mm 4 m/S 756 mmHg 80%
    20:00 +26°C° 0 mm 4 m/S 757 mmHg 85%
    21:00 +26°C° 0 mm 4 m/S 758 mmHg 89%
    22:00 +25°C° 0.2 mm 4 m/S 757 mmHg 91%
    23:00 +25°C° 0.2 mm 5 m/S 757 mmHg 93%

    21 November, Mittwoch

    Zeit Temperatur Niederschläge Wind Luftdruck Luftfeuchtigkeit
    00:00 +25°C° 0.2 mm 5 m/S 757 mmHg 94%
    01:00 +25°C° 0.3 mm 5 m/S 756 mmHg 95%
    02:00 +25°C° 0.3 mm 5 m/S 756 mmHg 95%
    03:00 +25°C° 0.3 mm 5 m/S 756 mmHg 96%
    04:00 +25°C° 0.2 mm 5 m/S 756 mmHg 95%
    05:00 +25°C° 0.2 mm 5 m/S 757 mmHg 94%
    06:00 +25°C° 0.2 mm 5 m/S 757 mmHg 93%
    07:00 +27°C° 0.2 mm 5 m/S 757 mmHg 86%
    08:00 +28°C° 0.2 mm 5 m/S 758 mmHg 79%
    09:00 +30°C° 0.2 mm 5 m/S 758 mmHg 71%
    10:00 +30°C° 0.1 mm 5 m/S 758 mmHg 68%
    11:00 +32°C° 0.1 mm 5 m/S 757 mmHg 65%
    12:00 +33°C° 0.1 mm 5 m/S 757 mmHg 62%
    13:00 +33°C° 0.1 mm 6 m/S 756 mmHg 62%
    14:00 +32°C° 0.1 mm 6 m/S 756 mmHg 62%
    15:00 +32°C° 0.1 mm 6 m/S 755 mmHg 62%
    16:00 +30°C° 0 mm 6 m/S 756 mmHg 68%
    17:00 +29°C° 0 mm 6 m/S 756 mmHg 74%
    18:00 +27°C° 0 mm 6 m/S 756 mmHg 80%
    19:00 +27°C° 0 mm 6 m/S 757 mmHg 83%
    20:00 +26°C° 0 mm 5 m/S 757 mmHg 85%
    21:00 +26°C° 0 mm 5 m/S 757 mmHg 87%
    22:00 +26°C° 0 mm 5 m/S 757 mmHg 88%
    23:00 +25°C° 0 mm 5 m/S 757 mmHg 89%

    22 November, Donnerstag

    Zeit Temperatur Niederschläge Wind Luftdruck Luftfeuchtigkeit
    00:00 +25°C° 0 mm 5 m/S 757 mmHg 90%
    01:00 +25°C° 0.1 mm 4 m/S 756 mmHg 91%
    02:00 +25°C° 0.1 mm 4 m/S 756 mmHg 92%
    03:00 +23°C° 0.1 mm 4 m/S 756 mmHg 93%
    04:00 +25°C° 0.1 mm 4 m/S 756 mmHg 93%
    05:00 +25°C° 0.1 mm 4 m/S 756 mmHg 92%
    06:00 +25°C° 0.1 mm 4 m/S 757 mmHg 91%
    07:00 +27°C° 0.1 mm 5 m/S 757 mmHg 84%
    08:00 +28°C° 0.1 mm 5 m/S 757 mmHg 77%
    09:00 +30°C° 0.1 mm 5 m/S 757 mmHg 70%
    10:00 +30°C° 0.1 mm 5 m/S 757 mmHg 68%
    11:00 +30°C° 0.1 mm 5 m/S 757 mmHg 67%
    12:00 +30°C° 0.1 mm 5 m/S 756 mmHg 65%
    13:00 +30°C° 0.1 mm 5 m/S 756 mmHg 65%
    14:00 +30°C° 0.1 mm 5 m/S 755 mmHg 65%
    15:00 +30°C° 0.1 mm 5 m/S 755 mmHg 64%
    16:00 +29°C° 0 mm 5 m/S 755 mmHg 69%
    17:00 +28°C° 0 mm 5 m/S 755 mmHg 74%
    18:00 +27°C° 0 mm 5 m/S 755 mmHg 79%
    19:00 +26°C° 0.1 mm 5 m/S 756 mmHg 82%
    20:00 +26°C° 0.1 mm 5 m/S 756 mmHg 85%
    21:00 +25°C° 0.1 mm 5 m/S 756 mmHg 88%
    22:00 +25°C° 0.1 mm 5 m/S 756 mmHg 90%
    23:00 +25°C° 0.1 mm 5 m/S 756 mmHg 91%
    Mehr zeigen